Flag for Israel Weather past 2 weeks in Tel Aviv, Israel

Now
72 °F

Clear.


Feels Like: 74 °F
Forecast: 67 / 85 °F
Wind: 2 mph from North

Location: Ben Gurion International Airport

Current Time: Apr 28, 2015 at 9:56:19 PM

Latest Report: Apr 28, 2015 at 9:20 PM


Visibility: 10 mi

Pressure: 29.95 "Hg

Humidity: 73%

Dew point: 63 °F

Location of Tel AvivLocation

Historic Weather in Tel Aviv — Graph

°F

Tel Aviv temperature yesterday

Maximum temperature yesterday: 90 °F (at 3:20 PM)
Minimum temperature yesterday: 55 °F (at 4:50 AM)
Average temperature yesterday: 74 °F

Past Weeks' High & Low Weather Summary

 TemperatureHumidityPressure
High90 °F (Apr 20, 1:20 PM)88% (Apr 14, 1:50 AM)30.30 "Hg (Apr 14, 1:50 AM)
Low50 °F (Apr 15, 5:20 AM)12% (Apr 20, 3:50 PM)29.83 "Hg (Apr 15, 1:20 PM)
Average66 °F60%30.03 "Hg
* Reported Apr 13 8:20 PM — Apr 28 8:50 PM, Tel Aviv, Weather by CustomWeather, © 2015

Note: Actual official high and low records may vary slightly from our data, if they occured in-between our weather recording intervals... More about our weather records

Advertising

Tel Aviv weather history for previous 24 hours

 ConditionsComfort  
Time TempWeatherWind HumidityBarometerVisibility
8:50 PM
Tue, Apr 28
72 °FClear.2 mph69%29.95 "Hg10 mi
8:20 PM72 °FClear.3 mph69%29.95 "Hg10 mi
7:50 PM72 °FSunny.7 mph69%29.92 "Hg10 mi
7:20 PM73 °FSunny.8 mph65%29.92 "Hg10 mi
6:50 PM77 °FSunny.7 mph57%29.92 "Hg10 mi
6:20 PM81 °FSunny.7 mph48%29.92 "Hg10 mi
5:50 PM84 °FPassing clouds.6 mph40%29.92 "HgN/A
5:20 PM84 °FSunny.5 mph40%29.92 "Hg10 mi
4:50 PM82 °FPassing clouds.6 mph40%29.92 "HgN/A
4:20 PM82 °FPassing clouds.7 mph42%29.92 "HgN/A
3:50 PM81 °FSunny.9 mph51%29.92 "Hg10 mi
3:20 PM81 °FSunny.12 mph51%29.92 "Hg10 mi
2:50 PM82 °FSunny.13 mph51%29.92 "Hg10 mi
2:20 PM84 °FSunny.10 mph48%29.92 "Hg10 mi
1:50 PM84 °FSunny.10 mph45%29.95 "Hg10 mi
1:20 PM86 °FPassing clouds.8 mph43%29.95 "HgN/A
12:50 PM84 °FPassing clouds.10 mph45%29.95 "HgN/A
12:20 PM86 °FPassing clouds.9 mph43%29.95 "HgN/A
11:50 AM86 °FPassing clouds.6 mph38%29.95 "HgN/A
11:20 AM88 °FSunny.5 mph29%29.95 "Hg10 mi
10:50 AM86 °FSunny.2 mph27%29.95 "Hg10 mi
10:20 AM82 °FSunny.6 mph30%29.95 "Hg10 mi
9:50 AM81 °FPassing clouds.6 mph32%29.95 "HgN/A
9:20 AM81 °FSunny.6 mph30%29.95 "Hg10 mi
8:50 AM79 °FSunny.3 mph34%29.92 "Hg10 mi
8:20 AM75 °FSunny.2 mph39%29.92 "Hg10 mi
7:50 AM70 °FSunny.3 mph53%29.89 "Hg10 mi
7:20 AM66 °FSunny.2 mph60%29.89 "Hg10 mi
6:20 AM66 °FClear.3 mph52%29.86 "Hg10 mi
5:50 AM66 °FClear.5 mph52%29.86 "Hg10 mi
5:20 AM64 °FClear.3 mph60%29.83 "Hg10 mi
4:50 AM64 °FClear.2 mph60%29.83 "Hg10 mi
4:20 AM64 °FClear.1 mph60%29.83 "Hg10 mi
3:50 AM64 °FClear.3 mph60%29.83 "Hg10 mi
3:20 AM66 °FClear.2 mph56%29.83 "Hg10 mi
2:50 AM68 °FClear.3 mph53%29.83 "Hg10 mi
2:20 AM68 °FClear.5 mph53%29.83 "Hg10 mi
1:50 AM68 °FClear.3 mph56%29.86 "Hg10 mi
1:20 AM70 °FClear.2 mph53%29.86 "Hg10 mi
12:20 AM70 °FPassing clouds.5 mph53%29.86 "HgN/A
11:50 PM
Mon, Apr 27
70 °FClear.3 mph53%29.86 "Hg10 mi
11:20 PM72 °FClear.5 mph50%29.86 "Hg10 mi
10:50 PM72 °FClear.5 mph50%29.86 "Hg10 mi
10:20 PM73 °FClear.6 mph47%29.86 "Hg10 mi
9:50 PM73 °FClear.5 mph47%29.86 "Hg10 mi
9:20 PM75 °FClear.5 mph44%29.86 "Hg10 mi
Weather by CustomWeather, © 2015

See weather overviewHow to use our weather pages